GFSFLT1_sfc_temp_111.txt.gz
Temp
80 80 80 80 79 79 78 78 78 78 77 77 77 76 76 77 77 80 82 82 80 80 79 79 79 79 79 79 79 80 80 80 80
79 79 79 79 79 79 78 78 77 77 77 76 76 75 75 79 79 80 80 80 79 80 80 79 79 79 78 78 79 80 79 79 79
79 78 79 79 79 78 77 77 77 77 76 76 75 74 74 78 78 79 79 78 79 79 79 79 79 79 79 78 79 79 79 79 79
78 78 78 79 79 78 77 77 76 76 75 75 75 74 73 78 78 80 80 77 78 78 77 77 78 78 78 79 79 78 79 79 78
78 78 78 78 78 77 77 76 75 75 74 74 73 72 74 77 77 79 79 77 78 77 76 77 77 78 78 78 78 78 78 78 78
78 77 78 78 78 77 76 75 74 74 73 72 71 73 76 78 79 79 76 77 77 76 76 76 76 76 76 77 76 76 76 77 77
79 78 77 77 77 76 75 72 70 71 73 73 72 76 76 77 78 78 75 76 76 76 75 75 75 75 75 75 75 75 75 76 76
76 75 75 77 73 75 73 71 72 71 72 72 74 75 76 76 78 76 75 75 76 76 75 74 74 74 74 74 74 74 74 74 74
73 73 71 71 71 71 71 70 70 70 72 74 73 74 74 76 77 75 74 75 75 76 75 74 74 74 74 73 73 73 73 73 73
70 70 70 70 70 71 70 70 70 71 71 72 73 73 74 75 74 75 73 74 75 75 75 75 74 74 73 73 72 72 72 72 72
70 69 68 69 71 70 71 70 70 69 71 69 71 71 71 72 72 73 74 72 74 74 75 75 74 74 73 73 72 72 71 71 71
70 69 69 69 70 71 70 70 69 68 69 69 69 69 71 71 71 70 70 71 70 72 73 74 74 74 74 73 72 72 71 71 71
69 68 67 67 68 68 69 68 67 68 69 68 68 69 69 70 70 69 69 68 70 69 69 71 72 73 73 73 72 72 71 71 71
69 68 67 67 67 68 68 66 69 67 66 67 67 68 68 68 69 69 67 66 66 68 65 65 67 70 71 71 72 72 71 70 70
68 67 66 67 66 66 66 67 66 67 67 68 66 66 67 67 68 68 68 67 65 66 65 67 67 66 67 68 70 71 71 71 70
65 66 66 66 66 66 67 65 65 64 66 65 64 64 65 65 65 66 67 65 66 66 65 66 66 66 63 66 67 68 69 69 70
61 66 65 65 63 62 64 63 62 62 61 63 62 60 63 64 63 63 66 65 66 65 65 65 65 64 65 63 62 64 66 68 68
63 64 62 61 63 61 63 62 59 58 57 60 62 57 59 60 63 62 64 64 64 64 64 64 64 64 65 63 62 62 64 65 66
58 63 62 62 61 60 61 63 64 64 62 61 62 63 64 62 58 61 61 62 62 62 63 64 63 63 63 60 59 61 62 63 64
55 57 61 62 59 62 62 61 62 64 64 62 60 60 60 60 61 59 58 59 59 60 61 62 63 63 62 62 60 59 61 61 62

GFSFLT1_sfc_temp_114.txt.gz
Temp
80 80 80 80 79 79 78 78 78 77 77 77 77 78 80 82 85 85 83 83 80 80 79 79 79 79 79 79 80 80 80 80 80
79 80 80 79 79 78 78 78 77 77 77 76 77 77 79 84 80 81 83 82 79 80 79 79 79 79 80 79 80 80 79 79 79
79 79 79 78 78 78 78 77 77 77 76 76 76 77 79 84 81 81 80 78 79 79 79 78 79 78 79 79 79 79 79 79 79
79 79 79 78 78 77 77 77 76 76 76 76 75 76 77 85 85 85 82 77 78 78 78 78 78 78 78 78 78 79 79 78 78
78 79 79 78 77 77 76 76 76 75 75 75 75 77 78 84 83 83 81 77 78 78 77 77 77 78 78 78 78 78 78 78 78
82 79 78 78 77 76 76 75 75 74 74 74 75 78 85 84 83 81 76 76 77 77 76 76 76 77 77 77 76 76 76 76 77
84 79 77 78 76 76 75 74 74 79 82 80 77 84 84 84 82 80 75 76 76 76 75 75 75 75 75 75 75 75 75 75 75
84 81 81 81 78 80 78 77 82 82 82 82 83 84 84 83 81 77 75 76 76 76 75 75 75 74 74 74 74 74 74 74 74
83 83 82 81 82 80 81 80 80 80 82 84 83 84 83 83 81 77 74 75 76 76 75 75 74 74 74 73 73 73 73 73 73
82 82 81 81 81 81 80 80 80 81 82 83 83 83 83 83 81 78 73 74 75 75 75 75 74 74 73 73 73 72 72 72 72
81 80 80 80 81 81 81 80 80 79 81 80 81 80 81 80 80 79 76 73 74 75 75 75 74 74 73 73 72 72 72 72 71
80 80 80 80 81 82 81 81 80 79 79 79 79 79 80 79 78 78 78 75 70 72 73 74 74 74 74 73 72 72 71 71 71
80 79 79 80 80 79 78 77 77 77 77 77 78 78 78 79 78 77 77 76 77 70 69 71 72 73 73 73 72 72 71 71 71
79 78 77 78 77 78 77 77 77 76 76 76 77 78 77 77 78 77 74 72 74 75 66 67 68 70 71 72 72 72 71 71 71
77 78 77 77 75 76 76 76 77 77 76 76 75 76 76 76 77 77 77 74 72 74 73 74 70 67 68 69 70 70 70 70 70
65 74 73 75 75 75 76 76 73 72 76 73 72 73 77 76 74 75 76 72 73 73 73 75 75 72 66 66 67 68 69 69 69
71 68 70 75 75 74 74 72 72 72 73 72 72 67 69 71 72 73 73 73 73 72 73 74 73 72 72 65 63 64 66 67 68
62 64 69 74 72 71 71 71 70 68 68 70 70 64 64 69 71 71 72 72 72 73 73 73 72 71 71 67 66 62 64 65 66
58 60 63 66 65 65 67 68 69 68 67 69 70 72 72 66 64 69 70 70 71 70 70 70 70 70 69 65 61 61 62 63 64
56 56 56 55 59 64 67 69 70 69 69 66 67 67 69 72 67 64 65 66 66 69 69 68 68 69 68 67 65 59 61 61 62

GFSFLT1_sfc_temp_117.txt.gz
Temp
80 80 80 79 79 78 78 78 78 77 77 77 79 80 80 81 85 81 80 80 80 79 79 79 79 79 80 80 80 80 80 80 79
80 80 79 79 78 78 78 78 77 77 77 77 79 80 80 80 78 80 79 79 79 79 79 79 79 79 79 79 80 79 79 79 79
80 79 78 79 78 78 77 77 77 77 77 77 78 78 80 84 81 80 79 78 79 79 79 78 78 78 79 79 79 79 79 78 78
79 79 78 78 77 77 77 77 77 76 76 77 78 78 79 84 83 81 79 77 78 78 78 78 78 78 78 78 79 79 79 78 78
79 79 78 78 77 77 76 76 76 76 76 77 78 78 79 83 80 80 78 77 78 78 77 77 78 78 78 78 78 77 77 78 77
81 78 77 77 76 76 76 75 75 75 75 76 76 76 83 82 80 78 76 77 77 77 76 76 76 76 76 77 77 77 76 76 76
83 78 77 76 76 76 75 75 75 78 81 81 76 84 83 81 78 77 75 76 76 76 76 75 75 75 75 75 75 75 75 75 75
83 80 79 78 77 78 77 76 82 83 83 83 85 84 83 81 78 76 75 76 76 76 75 75 75 75 75 75 74 74 74 74 74
83 82 82 80 82 81 81 81 81 82 84 85 84 85 82 80 78 75 74 75 76 76 75 75 74 74 74 74 74 73 73 73 73
84 84 82 82 82 82 81 81 81 83 84 84 84 83 83 81 77 75 73 74 75 75 75 75 74 74 73 73 73 73 73 72 72
83 82 81 81 82 82 82 81 81 81 82 81 82 82 81 80 77 76 73 73 74 75 75 75 75 74 74 73 73 72 72 72 72
83 82 80 81 83 83 83 82 82 80 80 80 80 80 80 79 78 76 74 73 70 73 74 74 74 74 74 73 72 72 72 72 72
81 81 80 81 81 81 80 79 78 78 78 78 78 78 79 79 78 77 76 75 73 69 70 72 73 73 73 73 72 72 72 71 71
81 80 80 81 79 79 78 77 78 76 76 77 77 78 77 77 78 76 74 72 74 71 68 68 69 71 72 72 72 71 71 71 71
80 79 79 79 76 77 77 76 77 77 76 78 76 76 76 76 77 77 77 73 72 73 72 68 68 69 69 70 71 71 71 70 70
79 78 77 77 75 75 76 76 75 75 77 73 72 73 77 76 75 76 75 73 72 72 72 72 72 67 67 67 67 68 69 69 69
74 72 73 69 74 75 75 74 72 73 75 71 70 65 69 73 75 74 74 74 72 72 73 73 72 71 68 64 64 64 66 67 67
72 73 72 73 74 73 73 72 71 66 70 73 69 64 62 67 70 71 71 73 72 72 72 73 71 71 69 65 63 63 63 64 65
66 64 62 63 61 64 67 67 67 66 63 66 71 71 70 65 61 69 70 71 72 71 70 71 70 69 67 64 61 61 62 62 63
58 58 57 56 56 57 59 62 64 65 65 65 66 65 66 68 63 61 63 68 69 70 69 67 66 68 67 65 63 60 61 61 62

GFSFLT1_sfc_temp_123.txt.gz
Temp
80 80 79 78 78 78 78 78 78 79 79 80 79 78 77 75 73 74 76 75 80 80 79 79 79 79 79 79 79 79 79 79 79
79 79 79 78 78 78 78 78 78 79 79 80 79 78 76 73 73 73 74 75 78 79 79 79 79 79 79 79 79 79 79 79 79
79 79 79 78 77 77 77 77 78 79 80 80 79 77 76 73 71 71 74 77 79 79 79 78 78 78 79 79 79 79 78 78 78
78 78 78 77 77 77 77 77 78 79 79 78 77 76 74 69 71 74 73 77 78 78 78 78 78 78 78 78 78 79 78 78 78
77 78 77 77 77 77 77 77 77 78 78 78 76 75 73 69 69 73 74 77 78 77 77 77 77 78 78 77 77 77 78 78 77
73 76 76 77 76 76 76 77 77 76 77 76 75 73 69 68 67 71 75 76 77 77 77 76 77 77 77 77 76 76 76 76 76
74 75 76 76 76 76 77 76 76 73 66 72 72 69 66 65 66 72 75 76 76 76 76 75 75 75 75 75 75 75 75 75 74
70 68 66 65 71 66 69 68 66 65 67 67 69 68 65 62 65 73 75 75 76 76 75 75 75 75 75 74 74 74 74 74 74
67 66 63 62 61 61 62 62 64 65 69 69 67 67 64 62 63 71 74 75 75 75 75 75 74 74 74 74 73 73 73 73 73
67 65 63 62 61 61 61 61 64 66 67 69 67 64 62 60 61 62 73 74 75 75 75 75 74 74 74 73 73 73 73 73 72
68 67 64 62 62 62 63 64 63 63 69 67 67 64 63 60 61 61 64 73 74 75 75 75 74 74 73 73 73 72 72 72 72
66 66 64 64 64 65 64 62 63 63 65 61 63 63 60 61 60 60 60 62 71 73 74 74 74 74 73 73 72 72 72 72 72
66 66 64 63 63 62 62 61 61 60 60 59 61 62 61 59 59 60 59 59 61 67 72 73 74 73 73 73 72 72 71 71 71
67 65 63 63 62 61 63 60 61 58 58 61 58 58 58 59 63 58 58 58 57 58 70 71 72 73 73 72 72 71 71 70 70
65 63 63 62 61 60 61 61 59 58 59 67 61 57 57 57 57 58 61 58 57 57 58 57 62 71 71 71 71 71 70 70 69
63 61 62 62 62 62 63 60 60 57 56 56 55 55 56 57 57 56 56 58 58 56 56 55 55 60 69 69 69 69 69 69 69
64 62 62 63 61 63 63 62 57 56 55 54 51 50 55 55 56 54 58 56 57 58 58 55 55 55 54 58 65 66 67 67 67
62 62 62 62 61 62 62 62 61 56 55 58 55 50 50 49 54 54 55 55 54 55 57 56 56 54 53 58 60 64 64 65 66
59 60 60 60 60 61 61 62 61 60 58 58 62 60 58 51 51 53 56 55 57 56 55 55 55 54 53 57 59 63 63 63 63
56 57 57 58 59 61 62 60 59 59 58 57 58 57 55 53 49 48 52 53 53 54 55 53 53 54 53 53 58 63 62 62 62